Location: Unspecified
(51.5147°N, 7.4673°E)
Time: 18:34:59
(UTC+01:00)

Explorer 7 - Pass Details

Date: 16 February 2026
Orbit: 430 x 541 km, 50.2° (Epoch: 12 March)

Event Time Altitude Azimuth Distance (km) Brightness Sun altitude
Rises 16:42:20 0° 227° (SW) 2,444 12.2 8.2°
Reaches altitude 10° 16:44:34 10° 217° (SW) 1,592 10.8 7.9°
Maximum altitude 16:47:48 32° 153° (SSE) 820 7.9 7.5°
Drops below altitude 10° 16:51:10 10° 89° (E) 1,658 8.8 7.1°
Sets 16:53:32 0° 79° (E) 2,564 9.6 6.7°
